Regional Weather Roundup
Issued by NWS Northern Indiana

Home | Current Version | Previous Version | Graphics & Text | Print | Product List | Glossary On
Versions: 1 2 3 4 5 6 7 8 9 10 11 12 13 14 15 16 17 18 19 20 21 22 23 24 25 26 27 28 29 30 31 32 33 34 35 36 37 38 39 40 41 42 43 44 45 46 47 48 49 50
000
ASUS43 KIWX 301100
RWRIWX

KIWX WEATHER ROUNDUP
NATIONAL WEATHER SERVICE NORTHERN INDIANA
700 AM EDT MON MAR 30 2015

NOTE: "FAIR" INDICATES FEW OR NO CLOUDS BELOW 12,000 FEET WITH NO
SIGNIFICANT WEATHER AND/OR OBSTRUCTIONS TO VISIBILITY.

* THESE STATIONS ARE NOT UNDER NWS QUALITY CONTROL. THEY ALSO MAY NOT
  REPORT WEATHER SUCH AS PRECIPITATION OR FOG.

INZ001>027-301200-
NORTHERN INDIANA

CITY           SKY/WX    TMP DP  RH WIND       PRES   REMARKS
GARY*          CLEAR     36  27  69 W8        30.01R
KNOX*            N/A     34  23  64 W10       29.98R WCI  26
SOUTH BEND     CLEAR     34  29  82 W8        29.97R WCI  27
ELKHART*       CLEAR     32  25  74 W7        29.97  WCI  26
GOSHEN         CLEAR     33  27  78 W7        29.95R WCI  27
WARSAW*        CLEAR     32  30  93 W7        29.96R WCI  26
ANGOLA*        CLEAR     36  28  75 W8        29.91R
FORT WAYNE     CLEAR     35  29  78 W9        29.96R WCI  28
PERU/GRISSOM   CLEAR     31  29  91 W8        29.98R WCI  23

$$
INZ028>050-301200-
CENTRAL INDIANA

CITY           SKY/WX    TMP DP  RH WIND       PRES   REMARKS
LAFAYETTE      CLEAR     34  30  85 W5        30.02R WCI  30
KOKOMO*          N/A     36  30  80 W9        29.99R
MUNCIE*        CLEAR     37  32  82 W7        29.98R
INDIANAPOLIS   CLEAR     39  33  79 NW10      30.00R

$$
MIZ043>046-050>051-056>058-064>065-071>073-077>080-301200-
SOUTHWEST LOWER MICHIGAN

CITY           SKY/WX    TMP DP  RH WIND       PRES   REMARKS
BATTLE CREEK   CLEAR     35  28  75 W8        29.91R WCI  29
BENTON HARBOR  CLEAR     36  31  82 W12       29.96R
COLDWATER*     CLEAR     33  28  81 W8        29.92R WCI  26
HILLSDALE*     CLEAR     35  30  80 W13       29.89R WCI  27
HOLLAND        CLEAR     38  31  76 W12       29.93R
GRAND RAPIDS   PTCLDY    35  28  75 W12       29.89R WCI  27
KALAMAZOO      CLEAR     36  28  73 W9        29.92R
STURGIS*       CLEAR     36  28  75 W6        29.93R
THREE RIVERS*  FAIR      37  28  71 W9        29.93R

$$
OHZ001>008-015>018-024>025-301200-
NORTHWEST OHIO

CITY           SKY/WX    TMP DP  RH WIND       PRES   REMARKS
DEFIANCE       CLEAR     37  29  72 VRB6      29.93R
FINDLAY        CLEAR     34  29  82 W9        29.91R WCI  27
TOLEDO EXPRESS CLEAR     36  29  75 W12       29.89R
TOLEDO METCALF CLEAR     38  29  70 W14       29.89R
LIMA           CLEAR     39  29  67 W13       29.93R

$$
AND FOR LAKE MICHIGAN COASTAL AND OPEN LAKE BUOY OBSERVATIONS

STATION/POSITION TEMP    WIND        PRES    VSBY  WAVE
                 AIR SEA DIR/SP/G                  HT/PER
                 (F)     (DEG/KT/KT) (MB)    (MI)  (FT/S)
CALUMET HARBOR    38     260/  5/  7 1014.6R
MICHIGAN CITY     37     220/ 13/ 14   N/A
BURNS HARBOR      39     270/ 12/ 14 1015.9S
SAINT JOSEPH      34     220/  5/  8 1015.2R

$$
&&


USA.gov is the U.S. government's official web portal to all federal, state and local government web resources and services.